Location: Nelson
(41.2830°S, 173.2830°E)
Time: 22:46:54
(UTC+12:00)

Cosmos 1340 Rocket - Pass Details

Date: 24 January 2019
Orbit: 530 x 558 km, 81.2° (Epoch: 19 April)

Event Time Altitude Azimuth Distance (km) Brightness Sun altitude
Exits shadow 23:48:42 52° 147° (SSE) 683 3.3 -24.3°
Drops below altitude 10° 23:51:53 10° 166° (SSE) 1,831 6.1 -24.6°
Sets 23:54:04 0° 168° (SSE) 2,737 7.1 -24.8°
